Change the Weather History Date:

Monday, February 11, 2013

  Actual Average Record
Temperature  
Mean Temperature 61 °F 49 °F  
Max Temperature 67 °F 61 °F 78 °F (1999)
Min Temperature 55 °F 37 °F 25 °F (2011)
Degree Days  
Heating Degree Days 4 16  
Month to date heating degree days 141 185  
Since 1 July heating degree days 1338 1677  
Growing Degree Days 10 (Base 50)    
Moisture  
Dew Point 56 °F    
Average Humidity 92    
Maximum Humidity 100    
Minimum Humidity 84    
Precipitation  
Precipitation 0.18 in 0.16 in 0.70 in (2014)
Month to date precipitation 4.53 1.72  
Year to date precipitation 7.67 6.27  
Snow  
Snow 0.00 in - - ()
Month to date snowfall 0.0  
Since 1 July snowfall 0.0  
Snow Depth 0.00 in    
Sea Level Pressure  
Sea Level Pressure 30.10 in    
Wind  
Wind Speed 5 mph (NNE)    
Max Wind Speed 15 mph    
Max Gust Speed 20 mph    
Visibility 4 miles    
Events Fog , Rain    
T = Trace of Precipitation, MM = Missing Value Source: NWS Daily Summary

Daily Weather History Graph

Daily Weather History Graph

Search for Another Location

Airport or City:

Trip Planner

Search our weather history database for the weather conditions in past years. The results will help you decide how hot, cold, wet, or windy it might be!

Date:

Astronomy

Feb. 11, 2013 Rise Set
Actual Time 6:29 AM CST 5:27 PM CST
Civil Twilight 6:04 AM CST 5:52 PM CST
Nautical Twilight 5:35 AM CST 6:21 PM CST
Astronomical Twilight 5:07 AM CST 6:49 PM CST
Moon 7:02 AM CST (2/11) 7:12 PM CST (2/11)
Length of Visible Light 11h 48m
Length of Day
10h 57m
Waxing Crescent, 3% of the Moon is Illuminated
Feb 11
Waxing Crescent
Feb 17
First Quarter
Feb 25
Full
Mar 4
Last Quarter
Mar 11
New

Hourly Weather History & Observations

Time (CST) Temp. Dew Point Humidity Pressure Visibility Wind Dir Wind Speed Gust Speed Precip Events Conditions
12:02 AM 57.2 °F 55.4 °F 94% 30.08 in 5.0 mi ESE 6.9 mph - 0.02 in Rain Light Rain
12:53 AM 57.9 °F 57.0 °F 97% 30.07 in 8.0 mi ESE 5.8 mph - 0.07 in Rain Light Rain
1:44 AM 57.2 °F 57.2 °F 100% 30.06 in 10.0 mi East 4.6 mph - 0.00 in   Overcast
1:53 AM 59.0 °F 57.0 °F 93% 30.05 in 10.0 mi SE 4.6 mph - 0.00 in   Overcast
2:53 AM 59.0 °F 57.0 °F 93% 30.03 in 10.0 mi Calm Calm - N/A   Overcast
3:17 AM 59.0 °F 57.2 °F 94% 30.05 in 10.0 mi SSE 5.8 mph - N/A   Overcast
3:53 AM 60.1 °F 57.9 °F 93% 30.05 in 10.0 mi Calm Calm - N/A   Overcast
4:20 AM 60.8 °F 57.2 °F 88% 30.06 in 10.0 mi North 6.9 mph - N/A   Overcast
4:25 AM 60.8 °F 57.2 °F 88% 30.05 in 10.0 mi North 4.6 mph - N/A   Overcast
4:53 AM 60.1 °F 57.9 °F 93% 30.07 in 6.0 mi NNW 3.5 mph - 0.00 in Rain Light Rain
5:19 AM 60.8 °F 57.2 °F 88% 30.08 in 5.0 mi North 10.4 mph - 0.00 in   Overcast
5:43 AM 59.0 °F 57.2 °F 94% 30.07 in 6.0 mi SE 4.6 mph - 0.01 in Rain Light Rain
5:53 AM 59.0 °F 57.9 °F 96% 30.06 in 4.0 mi SE 9.2 mph - 0.01 in Rain Light Rain
6:02 AM 59.0 °F 57.2 °F 94% 30.07 in 5.0 mi Calm Calm - 0.00 in Rain Light Rain
6:36 AM 59.0 °F 57.2 °F 94% 30.08 in 0.8 mi Calm Calm - 0.01 in   Mostly Cloudy
6:43 AM 57.2 °F 57.2 °F 100% 30.08 in 0.2 mi Calm Calm - 0.01 in Fog Fog
6:53 AM 57.9 °F 57.0 °F 97% 30.07 in 0.5 mi Calm Calm - 0.01 in Fog Fog
7:17 AM 59.0 °F 57.2 °F 94% 30.08 in 1.0 mi Calm Calm - N/A   Partly Cloudy
7:21 AM 60.8 °F 59.0 °F 94% 30.08 in 1.8 mi Calm Calm - N/A   Partly Cloudy
7:23 AM 60.8 °F 59.0 °F 94% 30.08 in 3.0 mi Calm Calm - N/A   Partly Cloudy
7:53 AM 61.0 °F 59.0 °F 93% 30.09 in 6.0 mi Calm Calm - N/A   Mostly Cloudy
8:01 AM 60.8 °F 60.8 °F 100% 30.09 in 6.0 mi Calm Calm - N/A   Mostly Cloudy
8:14 AM 62.6 °F 60.8 °F 94% 30.10 in 6.0 mi Calm Calm - N/A   Mostly Cloudy
8:53 AM 64.9 °F 62.1 °F 90% 30.10 in 6.0 mi Calm Calm - N/A   Mostly Cloudy
9:51 AM 66.2 °F 60.8 °F 83% 30.12 in 8.0 mi NNW 11.5 mph 17.3 mph 0.00 in Rain Light Rain
9:53 AM 64.9 °F 60.1 °F 84% 30.12 in 4.0 mi NNW 10.4 mph 17.3 mph 0.00 in Rain Light Rain
10:28 AM 64.4 °F 60.8 °F 88% 30.14 in 6.0 mi NNW 9.2 mph - 0.01 in Rain Light Rain
10:53 AM 63.0 °F 60.1 °F 90% 30.14 in 10.0 mi NW 10.4 mph - 0.02 in   Overcast
11:53 AM 63.0 °F 59.0 °F 87% 30.13 in 9.0 mi NNW 9.2 mph - 0.01 in   Overcast
12:15 PM 62.6 °F 57.2 °F 82% 30.13 in 10.0 mi North 11.5 mph - N/A   Overcast
12:39 PM 62.6 °F 57.2 °F 82% 30.14 in 10.0 mi North 15.0 mph 19.6 mph N/A   Overcast
12:53 PM 63.0 °F 57.0 °F 81% 30.12 in 10.0 mi North 11.5 mph - N/A   Overcast
1:11 PM 64.4 °F 55.4 °F 73% 30.12 in 10.0 mi North 10.4 mph - N/A   Overcast
1:53 PM 63.0 °F 53.1 °F 70% 30.11 in 10.0 mi North 11.5 mph - 0.00 in Rain Light Rain
2:35 PM 59.0 °F 53.6 °F 82% 30.12 in 1.8 mi North 8.1 mph - 0.00 in Rain Heavy Rain
2:38 PM 59.0 °F 53.6 °F 82% 30.13 in 1.2 mi North 8.1 mph - 0.00 in Rain Heavy Rain
2:44 PM 59.0 °F 55.4 °F 88% 30.13 in 1.8 mi NNW 8.1 mph - N/A Rain Light Rain
2:48 PM 57.2 °F 55.4 °F 94% 30.14 in 3.0 mi NNW 8.1 mph - N/A Rain Light Rain
2:53 PM 57.9 °F 55.0 °F 90% 30.14 in 4.0 mi NNW 9.2 mph - N/A Rain Light Rain
3:10 PM 57.2 °F 53.6 °F 88% 30.15 in 2.0 mi NNW 8.1 mph - N/A Rain Rain
3:20 PM 57.2 °F 53.6 °F 88% 30.13 in 1.5 mi North 8.1 mph - N/A Rain Rain
3:36 PM 57.2 °F 53.6 °F 88% 30.12 in 1.8 mi Calm Calm - N/A Rain Light Rain
3:41 PM 55.4 °F 53.6 °F 94% 30.11 in 3.0 mi NE 6.9 mph - N/A Rain Light Rain
3:51 PM 55.4 °F 53.6 °F 94% 30.11 in 1.8 mi NNE 6.9 mph - N/A Rain Rain
3:53 PM 55.9 °F 53.1 °F 90% 30.11 in 1.5 mi NNE 6.9 mph - N/A Rain Rain
4:03 PM 55.4 °F 53.6 °F 94% 30.11 in 2.0 mi NNE 6.9 mph - 0.00 in Rain Rain
4:53 PM 55.0 °F 53.1 °F 93% 30.08 in 1.8 mi ENE 6.9 mph - N/A Rain Rain
5:04 PM 55.4 °F 53.6 °F 94% 30.10 in 3.0 mi East 3.5 mph - N/A Rain Light Rain
5:53 PM 55.0 °F 53.1 °F 93% 30.10 in 9.0 mi North 3.5 mph - N/A Rain Light Rain
6:18 PM 55.4 °F 53.6 °F 94% 30.14 in 2.0 mi NW 3.5 mph - N/A Rain Rain
6:34 PM 55.4 °F 53.6 °F 94% 30.10 in 3.0 mi ENE 4.6 mph - N/A Rain Light Rain
6:53 PM 55.0 °F 54.0 °F 96% 30.09 in 5.0 mi East 4.6 mph - N/A Rain Light Rain
7:08 PM 55.4 °F 53.6 °F 94% 30.10 in 5.0 mi NE 4.6 mph - 0.00 in Rain Light Rain
7:26 PM 55.4 °F 53.6 °F 94% 30.13 in 1.8 mi South 5.8 mph - 0.01 in Rain Heavy Rain
7:33 PM 55.4 °F 53.6 °F 94% 30.14 in 1.5 mi Calm Calm - 0.01 in Rain Rain
7:39 PM 55.4 °F 53.6 °F 94% 30.16 in 1.0 mi SW 5.8 mph - 0.01 in Rain Heavy Rain
7:49 PM 55.4 °F 53.6 °F 94% 30.15 in 0.8 mi Calm Calm - 0.01 in Rain Heavy Rain
7:53 PM 55.0 °F 54.0 °F 96% 30.13 in 1.0 mi Calm Calm - 0.01 in Rain Heavy Rain
7:58 PM 55.4 °F 53.6 °F 94% 30.13 in 1.5 mi Calm Calm - 0.00 in Rain Rain
8:00 PM 55.4 °F 53.6 °F 94% 30.12 in 2.0 mi NE 3.5 mph - 0.01 in Rain Light Rain
8:09 PM 55.4 °F 53.6 °F 94% 30.11 in 5.0 mi NNE 4.6 mph - 0.01 in Rain Light Rain
8:29 PM 55.4 °F 53.6 °F 94% 30.10 in 2.5 mi East 4.6 mph - 0.01 in Rain Rain
8:44 PM 55.4 °F 53.6 °F 94% 30.09 in 3.0 mi ESE 8.1 mph - 0.01 in Rain Light Rain
8:53 PM 55.0 °F 53.1 °F 93% 30.08 in 4.0 mi East 5.8 mph - 0.02 in Rain Light Rain
9:16 PM 55.4 °F 53.6 °F 94% 30.10 in 9.0 mi Calm Calm - 0.00 in Rain Light Rain
9:53 PM 55.0 °F 54.0 °F 96% 30.09 in 2.5 mi Calm Calm - 0.01 in Rain Light Rain
9:59 PM 55.4 °F 53.6 °F 94% 30.12 in 1.5 mi NW 6.9 mph - 0.00 in Rain Heavy Rain
10:04 PM 55.4 °F 53.6 °F 94% 30.13 in 2.0 mi WNW 9.2 mph - 0.00 in Rain Light Rain
10:22 PM 55.4 °F 53.6 °F 94% 30.11 in 1.8 mi NNE 5.8 mph - N/A Rain Rain
10:25 PM 55.4 °F 53.6 °F 94% 30.11 in 2.0 mi North 4.6 mph - N/A Rain Light Rain
10:34 PM 55.4 °F 53.6 °F 94% 30.11 in 3.0 mi North 4.6 mph - N/A Rain Light Rain
10:53 PM 55.0 °F 54.0 °F 96% 30.10 in 3.0 mi NNE 5.8 mph - N/A Rain Light Rain
11:12 PM 55.4 °F 53.6 °F 94% 30.10 in 6.0 mi North 3.5 mph - 0.01 in Rain Light Rain
11:22 PM 55.4 °F 53.6 °F 94% 30.10 in 7.0 mi North 6.9 mph - 0.01 in Rain Light Rain
11:36 PM 55.4 °F 53.6 °F 94% 30.10 in 4.0 mi Calm Calm - 0.01 in Rain Rain
11:42 PM 55.4 °F 53.6 °F 94% 30.14 in 2.5 mi WNW 10.4 mph - 0.02 in Rain Light Rain
11:50 PM 55.4 °F 53.6 °F 94% 30.10 in 1.5 mi NNE 3.5 mph - 0.02 in Rain Heavy Rain
11:53 PM 55.0 °F 54.0 °F 96% 30.11 in 1.5 mi NNW 5.8 mph - 0.02 in Rain Rain
11:55 PM 55.4 °F 53.6 °F 94% 30.12 in 2.0 mi NNW 8.1 mph - 0.00 in Rain Light Rain
11:58 PM 55.4 °F 53.6 °F 94% 30.11 in 2.5 mi North 8.1 mph - 0.00 in Rain Light Rain